Regional Weather Roundup
Issued by NWS Midland/Odessa, TX

Home | Current Version | Previous Version | Text Only | Print | Product List | Glossary On
Versions: 1 2 3 4 5 6 7 8 9 10 11 12 13 14 15 16 17 18 19 20 21 22 23 24 25 26 27 28 29 30 31 32 33 34 35 36 37 38 39 40 41 42 43 44 45 46 47 48 49 50
000
ASUS44 KMAF 250610
RWRMAF
MIDLAND AREA WEATHER ROUNDUP
NATIONAL WEATHER SERVICE MIDLAND TX
100 AM CDT TUE JUL 25 2017

...IN SOUTHWEST TEXAS AND SOUTHEAST NEW MEXICO...

CITY           SKY/WX    TMP DP  RH WIND       PRES   REMARKS
ALPINE         MOCLDY    73  60  62 CALM      30.21S
ANDREWS        FAIR      75  64  69 S6        30.09S
ARTESIA        CLOUDY    82  63  51 SE10      30.06S
BIG SPRING     PTCLDY    77  65  67 CALM      30.08R
CARLSBAD       CLEAR     80  65  59 S8        30.04R
DRYDEN           N/A     81  57  43 E5        30.00S
FORT STOCKTON  PTCLDY    78  64  61 SE8       30.04S
GUAD PASS      CLOUDY    75  59  57 SW8       30.23R
HOBBS          CLEAR     77  61  57 SE10      30.11R
MARFA          CLOUDY    69  64  84 N5        30.20R
MIDLAND AIRPK  PTCLDY    80  64  58 S8        30.07S
MIDLAND INTL   PTCLDY    79  65  62 SE9       30.06R
ODESSA         CLOUDY    80  64  58 S12       30.07S
PECOS          CLOUDY    81  63  53 SE6       30.02S
PRESIDIO       FAIR      83  63  49 CALM      30.04R
SEMINOLE       PTCLDY    75  64  67 SE3       30.10S
SNYDER         CLEAR     77  65  68 S5        30.06S
WINK           PTCLDY    79  66  64 SE8       30.03R
$$
...OTHER STATIONS IN TEXAS...

CITY           SKY/WX    TMP DP  RH WIND       PRES   REMARKS
ABILENE        PTCLDY    76  68  76 S6        30.03R
AMARILLO       CLOUDY    74  65  73 SE9       30.11R
AUSTIN         MOCLDY    81  73  76 S9        30.02R
BROWNSVILLE    CLEAR     81  78  91 SE8       30.00S
CORPUS CHRISTI MOCLDY    81  78  91 S10       30.00S
DALLAS FTW     CLEAR     81  74  79 SE8       29.99R
DEL RIO        CLOUDY    88  60  38 E9        29.94R
EL PASO        CLOUDY    81  63  54 SE3       30.09S
HOUSTON INT    CLOUDY    82  74  76 S5        30.04R
LUBBOCK        MOCLDY    77  65  66 S8        30.09S
SAN ANGELO     CLEAR     73  65  75 CALM      30.02S
SAN ANTONIO    PTCLDY    81  72  74 SE13      30.03R
WACO           CLEAR     79  75  87 SE10      30.01R
WICHITA FALLS  NOT AVBL
$$
...OTHER LOCATIONS IN NEW MEXICO...

CITY           SKY/WX    TMP DP  RH WIND       PRES   REMARKS
ALAMOGORDO     CLOUDY    81  59  47 S15       30.11R
ALBUQUERQUE    CLOUDY    78  56  46 S3        30.17R
CANNON AFB     CLEAR     71  67  87 S3        30.14S
CLOVIS         CLEAR     70  65  84 SE8       30.14S
HOLLOMAN AFB   CLOUDY    81  61  50 SE12      30.11R
ROSWELL        PTCLDY    81  59  47 S8        30.06R
RUIDOSO        PTCLDY    63  57  82 SW9       30.32S
SANTA FE       CLOUDY    68  62  81 N7        30.24F
TRUTH OR CONSE MOCLDY    75  59  57 W6        30.13S
TUCUMCARI      PTCLDY    77  62  59 S13       30.08R
$$




USA.gov is the U.S. government's official web portal to all federal, state and local government web resources and services.